Weather History for George, South Africa

Change the Weather History Date:

Friday, May 24, 2013

  Actual Average Record
Temperature  
Mean Temperature 58 °F -  
Max Temperature 68 °F 66 °F 88 °F (2014)
Min Temperature 48 °F 46 °F 42 °F (2006)
Degree Days  
Heating Degree Days 7    
Growing Degree Days 8 (Base 50)    
Moisture  
Dew Point 52 °F    
Average Humidity 82    
Maximum Humidity 97    
Minimum Humidity 49    
Precipitation  
Precipitation 0.01 in - - ()
Sea Level Pressure  
Sea Level Pressure 30.08 in    
Wind  
Wind Speed 4 mph ()    
Max Wind Speed 10 mph    
Max Gust Speed -    
Visibility 10.2 miles    
Events Fog    
Averages and records for this station are not official NWS values.
T = Trace of Precipitation, MM = Missing Value Source: Averaged Metar Reports

Daily Weather History Graph

Daily Weather History Graph

Search for Another Location

Airport:

Trip Planner

Search our weather history database for the weather conditions in past years. The results will help you decide how hot, cold, wet, or windy it might be!

Date:

Astronomy

May. 24, 2013 Rise Set
Actual Time 7:22 AM SAST 5:32 PM SAST
Civil Twilight 6:55 AM SAST 5:59 PM SAST
Nautical Twilight 6:24 AM SAST 6:29 PM SAST
Astronomical Twilight 5:54 AM SAST 6:59 PM SAST
Moon 5:04 PM SAST 6:17 AM SAST
Length of Visible Light 11h 04m
Length of Day
10h 09m
Waxing Gibbous, 99% of the Moon is Illuminated
May 24
Waxing Gibbous
May 25
Full
May 31
Last Quarter
Jun 8
New
Jun 16
First Quarter

Hourly Weather History & Observations

Time (SAST) Temp. Dew Point Humidity Pressure Visibility Wind Dir Wind Speed Gust Speed Precip Events Conditions
12:00 AM 55.4 °F 51.8 °F 88% 30.15 in 6.2 mi NNE 2.3 mph - N/A   Scattered Clouds
1:00 AM 53.6 °F 51.8 °F 94% 30.12 in - NNE 4.6 mph - N/A   Clear
2:00 AM 53 °F 50 °F 86% 30.12 in 12 mi NE 3.5 mph - -  
2:00 AM 53.6 °F 50.0 °F 88% 30.09 in - ENE 3.5 mph - N/A   Clear
3:00 AM 51.8 °F 50.0 °F 94% 30.09 in - NE 3.5 mph - N/A   Clear
4:00 AM 51.8 °F 48.2 °F 88% 30.09 in - Variable 2.3 mph - N/A   Clear
5:00 AM 50 °F 48 °F 89% 30.14 in 12 mi NNW 5.8 mph - -  
5:00 AM 50.0 °F 48.2 °F 94% 30.12 in - NNW 4.6 mph - N/A   Clear
6:00 AM 50.0 °F 48.2 °F 94% 30.12 in - North 3.5 mph - N/A   Clear
7:00 AM 48.2 °F 46.4 °F 93% 30.12 in - NE 6.9 mph - N/A   Clear
8:00 AM 51 °F 48 °F 86% 30.12 in 12 mi ENE 5.8 mph - -   Clear
8:00 AM 50.0 °F 48.2 °F 94% 30.09 in - East 8.1 mph - N/A   Clear
9:00 AM 59.0 °F 53.6 °F 82% 30.12 in - East 3.5 mph - N/A   Clear
10:00 AM 62.6 °F 55.4 °F 77% 30.12 in - East 4.6 mph - N/A   Clear
11:00 AM 65 °F 54 °F 58% 30.12 in 19 mi East 6.9 mph - -   Clear
11:00 AM 66.2 °F 51.8 °F 60% 30.12 in - East 6.9 mph - N/A   Clear
12:00 PM 66.2 °F 51.8 °F 60% 30.09 in - East 8.1 mph - N/A   Clear
1:00 PM 68.0 °F 53.6 °F 60% 30.06 in - ESE 8.1 mph - N/A   Clear
2:00 PM 68 °F 53 °F 49% 30.06 in 12 mi East 6.9 mph - -   Clear
2:00 PM 68.0 °F 53.6 °F 60% 30.04 in - East 6.9 mph - N/A   Clear
3:00 PM 64.4 °F 53.6 °F 68% 30.04 in - ESE 10.4 mph - N/A   Clear
4:00 PM 64.4 °F 53.6 °F 68% 30.01 in - East 8.1 mph - N/A   Clear
5:00 PM 61 °F 55 °F 73% 30.03 in 12 mi East 4.6 mph - -   Clear
5:00 PM 60.8 °F 55.4 °F 82% 30.01 in - East 4.6 mph - N/A   Clear
6:00 PM 59.0 °F 55.4 °F 88% 30.01 in - ESE 3.5 mph - N/A   Clear
7:00 PM 57.2 °F 55.4 °F 94% 30.04 in - East 1.2 mph - N/A   Clear
8:00 PM 56 °F 55 °F 97% 30.04 in 12 mi ENE 1.2 mph - -   Clear
8:00 PM 57.2 °F 55.4 °F 94% 30.04 in - ENE 1.2 mph - N/A   Clear
10:00 PM 55.4 °F 53.6 °F 94% 30.04 in 0.3 mi ESE 2.3 mph - N/A Fog Fog
11:00 PM 51.8 °F 50.0 °F 94% 30.04 in 4.3 mi NNW 3.5 mph - N/A   Scattered Clouds